1496772000.05,24227,18.75,73578.0,5.49,-6.89,-4.25,0,*70
1496772001.26,24228,18.75,73576.0,5.49,-7.01,-4.49,0,*74
1496772002.49,24229,18.75,73574.5,5.49,-7.31,-4.69,0,*74
1496772003.72,24230,18.75,73574.0,5.45,-7.27,-4.69,0,*77
1496772004.94,24231,18.75,73570.0,5.45,-6.97,-4.65,0,*70
1496772006.13,24232,18.75,73580.8,5.49,-6.59,-4.37,0,*7A
1496772007.37,24233,18.75,73578.8,5.45,-6.19,-4.01,0,*76
1496772008.55,24234,18.75,73576.0,5.49,-5.51,-3.39,0,*7E
1496772009.76,24235,18.75,73578.5,5.45,-4.89,-2.83,0,*77
1496772010.95,24236,18.75,73588.8,5.45,-4.25,-2.19,0,*71
1496772012.19,24237,18.75,73578.5,5.45,-3.47,-1.47,0,*7B
1496772013.39,24238,18.81,73574.5,5.45,-2.59,-0.65,0,*4B
1496772014.61,24239,18.75,73572.3,5.45,-1.83,0.17,0,*66
1496772015.86,24240,18.75,73576.8,5.43,-1.05,0.79,0,*68
1496772017.05,24241,18.75,73578.5,5.49,-0.33,1.47,0,*6B
1496772018.24,24242,18.75,73574.3,5.45,-0.03,1.93,0,*5E
1496772019.44,24243,18.75,73570.3,5.45,0.09,2.17,0,*77
1496772020.65,24244,18.75,73574.0,5.49,0.37,2.39,0,*4D
1496772021.86,24245,18.75,73574.0,5.45,0.59,2.43,0,*45
1496772023.09,24246,18.75,73572.0,5.45,1.13,2.55,0,*7E
1496772024.3,24247,18.75,73572.0,5.45,1.55,2.65,0,*7E
1496772025.5,24248,18.75,73576.3,5.49,1.85,2.65,0,*70
1496772026.7,24249,18.75,73576.3,5.49,2.31,2.77,0,*7E
1496772027.9,24250,18.75,73574.5,5.49,2.69,2.91,0,*73
1496772029.09,24251,18.75,73574.5,5.49,2.99,3.03,0,*77
1496772030.29,24252,18.75,73572.0,5.51,2.95,2.95,0,*7F
1496772031.51,24253,18.75,73570.3,5.49,2.43,2.69,0,*7F
1496772032.71,24254,18.75,73566.5,5.49,1.75,2.39,0,*7B
1496772033.94,24255,18.75,73568.0,5.49,1.21,2.09,0,*78
1496772035.15,24256,18.75,73570.5,5.49,0.75,2.05,0,*47
1496772036.37,24257,18.75,73570.5,5.49,0.75,2.17,0,*45
1496772037.54,24258,18.75,73574.5,5.45,1.01,2.27,0,*77
1496772038.74,24259,18.81,73574.8,5.49,1.37,2.31,0,*78
1496772039.96,24260,18.75,73570.5,5.49,1.71,2.21,0,*71
1496772041.18,24261,18.75,73566.5,5.45,1.85,1.97,0,*79
1496772042.35,24262,18.75,73566.3,5.49,1.75,1.75,0,*75
1496772043.57,24263,18.75,73568.8,5.49,1.43,1.43,0,*74
1496772044.76,24264,18.75,73570.0,5.49,1.01,1.33,0,*72
1496772045.99,24265,18.75,73566.3,5.49,0.87,1.21,0,*4F
1496772047.2,24266,18.75,73564.0,5.45,0.95,1.43,0,*47
1496772048.42,24267,18.75,73568.8,5.49,1.55,1.97,0,*7E
1496772049.65,24268,18.75,73568.5,5.45,2.17,2.59,0,*79
1496772050.84,24269,18.75,73562.8,5.49,2.99,3.11,0,*7F
1496772052.04,24270,18.75,73560.3,5.49,3.37,3.29,0,*79
1496772053.26,24271,18.75,73562.0,5.49,3.53,3.49,0,*7C
1496772054.49,24272,18.75,73566.0,5.49,3.71,3.41,0,*77
1496772055.71,24273,18.75,73562.0,5.49,3.75,3.53,0,*71
1496772056.88,24274,18.75,73570.8,5.45,3.85,3.63,0,*76
1496772058.1,24275,18.75,73566.5,5.49,3.97,3.75,0,*7F
1496772059.3,24276,18.75,73568.8,5.49,3.93,3.71,0,*7C
1496772060.5,24277,18.75,73570.3,5.49,3.93,3.75,0,*79
1496772061.7,24278,18.75,73572.8,5.49,3.97,3.81,0,*79
1496772062.87,24279,18.75,73566.0,5.49,3.81,3.81,0,*7F
1496772064.1,24280,18.75,73570.0,5.49,3.71,3.71,0,*79
1496772065.3,24281,18.75,73568.5,5.51,3.63,3.63,0,*71
1496772066.54,24282,18.75,73572.0,5.51,3.53,3.53,0,*72
1496772067.78,24283,18.75,73572.0,5.51,3.19,3.37,0,*7F
1496772068.96,24284,18.75,73570.0,5.45,2.99,3.29,0,*7B
1496772070.16,24285,18.75,73568.3,5.49,3.15,3.25,0,*7F
1496772071.41,24286,18.81,73574.0,5.51,3.33,3.45,0,*77
1496772072.63,24287,18.75,73572.0,5.49,3.49,3.49,0,*7E
1496772073.86,24288,18.75,73568.5,5.49,3.75,3.53,0,*75
1496772075.05,24289,18.75,73560.3,5.49,3.85,3.53,0,*7B
1496772076.27,24290,18.75,73566.0,5.49,3.97,3.71,0,*70
1496772077.46,24291,18.75,73554.5,5.49,3.97,3.81,0,*7E
1496772078.63,24292,18.75,73554.8,5.49,3.81,3.85,0,*7E
1496772079.83,24293,18.75,73560.0,5.49,3.97,4.07,0,*75
1496772081.02,24294,18.75,73566.3,5.49,3.97,4.07,0,*72
1496772082.24,24295,18.75,73564.5,5.51,4.01,4.11,0,*75
1496772083.5,24296,18.75,73568.0,5.51,3.79,4.05,0,*7B
1496772084.72,24297,18.75,73568.8,5.51,3.25,3.53,0,*77
1496772085.97,24298,18.75,73568.8,5.51,2.59,2.69,0,*7A
1496772087.22,24299,18.75,73560.5,5.51,2.43,2.09,0,*76
1496772088.44,24300,18.75,73560.3,5.49,2.21,1.85,0,*7D
1496772089.64,24301,18.75,73560.8,5.49,1.85,1.75,0,*7E
1496772090.86,24302,18.75,73564.5,5.49,1.43,1.55,0,*75
1496772092.08,24303,18.75,73566.0,5.49,1.21,1.43,0,*77
1496772093.3,24304,18.75,73564.3,5.49,0.75,1.21,0,*44
1496772094.47,24305,18.75,73568.8,5.49,0.17,0.97,0,*7D
1496772095.69,24306,18.75,73572.5,5.49,-0.85,0.29,0,*5D
1496772096.86,24307,18.75,73570.3,5.49,-2.19,-0.57,0,*4F
1496772098.05,24308,18.75,73570.0,5.49,-3.27,-1.75,0,*7D
1496772099.23,24309,18.75,73568.3,5.49,-4.61,-2.99,0,*78
1496772100.44,24310,18.75,73560.3,5.49,-5.51,-3.71,0,*75
1496772101.65,24311,18.75,73548.5,5.49,-5.97,-4.01,0,*7E
1496772102.85,24312,18.75,73556.3,5.45,-6.47,-4.77,0,*7E
1496772104.07,24313,18.75,73560.0,5.45,-6.97,-5.39,0,*79
1496772105.26,24314,18.75,73570.0,5.45,-7.19,-5.55,0,*73
1496772106.48,24315,18.75,73556.5,5.45,-7.19,-5.69,0,*7D
1496772107.71,24316,18.75,73526.5,5.45,-7.27,-5.69,0,*73
1496772108.93,24317,18.75,73550.5,5.45,-6.85,-5.31,0,*76
1496772110.14,24318,18.75,73558.3,5.45,-6.89,-4.69,0,*79
1496772111.33,24319,18.75,73556.0,5.45,-5.39,-4.41,0,*7A
1496772112.54,24320,18.75,73560.0,5.45,-6.19,-4.41,0,*71
1496772113.78,24321,18.75,73558.5,5.43,-6.51,-4.93,0,*75
1496772115.01,24322,18.75,73552.5,5.43,-5.61,-4.45,0,*7D
1496772116.25,24323,18.75,73556.3,5.43,-4.93,-4.53,0,*77
1496772117.48,24324,18.75,73562.0,5.43,-4.73,-3.79,0,*71
1496772118.69,24325,18.75,73562.8,5.41,-6.05,-4.89,0,*79
1496772119.94,24326,18.75,73560.8,5.43,-6.77,-4.85,0,*71
1496772121.15,24327,18.75,73560.5,5.43,-6.77,-4.99,0,*7D
1496772122.34,24328,18.75,73560.8,5.41,-6.31,-4.61,0,*75
1496772123.61,24329,18.75,73558.0,5.43,-6.93,-5.31,0,*7A
1496772124.82,24330,18.75,73560.8,5.43,-6.39,-4.33,0,*71
1496772126.03,24331,18.75,73560.3,5.43,-6.51,-4.45,0,*7F
1496772127.24,24332,18.75,73566.3,5.43,-6.43,-4.17,0,*78
1496772128.46,24333,18.75,73560.5,5.43,-6.01,-4.09,0,*70
1496772129.67,24334,18.75,73566.0,5.43,-6.01,-4.57,0,*7C
1496772130.91,24335,18.75,73564.0,5.43,-6.43,-4.81,0,*70
1496772132.15,24336,18.75,73566.5,5.43,-6.23,-4.33,0,*7C
1496772133.34,24337,18.75,73566.8,5.41,-6.43,-4.13,0,*7B
1496772134.53,24338,18.75,73566.8,5.41,-5.51,-4.13,0,*74
1496772135.75,24339,18.75,73570.5,5.41,-5.93,-4.37,0,*7D
1496772136.98,24340,18.75,73568.3,5.41,-5.65,-3.71,0,*7F
1496772138.21,24341,18.75,73570.5,5.43,-5.35,-3.43,0,*78
1496772139.41,24342,18.75,73566.3,5.41,-4.69,-4.25,0,*76
1496772140.6,24343,18.75,73562.3,5.41,-4.57,-4.45,0,*7C
1496772141.79,24344,18.75,73562.8,5.41,-4.21,-3.91,0,*74
1496772143.0,24345,18.75,73566.0,5.43,-4.17,-3.39,0,*70
1496772144.24,24346,18.75,73566.8,5.41,-3.59,-2.67,0,*76
1496772145.46,24347,18.75,73566.8,5.41,-3.07,-2.03,0,*7E
1496772146.68,24348,18.75,73566.5,5.41,-2.95,-2.55,0,*78
1496772147.91,24349,18.75,73576.0,5.41,-3.43,-2.59,0,*7F
1496772149.12,24350,18.75,73576.3,5.41,-4.85,-3.91,0,*7F
1496772150.36,24351,18.75,73586.3,5.41,-5.81,-5.03,0,*76
1496772151.6,24352,18.75,73580.8,5.41,-5.81,-5.15,0,*72
1496772152.84,24353,18.75,73576.8,5.41,-5.65,-4.89,0,*7D
1496772154.06,24354,18.75,73580.3,5.41,-5.81,-4.57,0,*73
1496772155.27,24355,18.75,73588.0,5.41,-5.61,-4.25,0,*79
1496772156.51,24356,18.75,73592.3,5.41,-5.89,-4.69,0,*74
1496772157.69,24357,18.81,73588.5,5.41,-6.69,-5.39,0,*7C
1496772158.93,24358,18.75,73566.8,5.41,-6.93,-5.89,0,*7D
1496772160.12,24359,18.75,73566.3,5.41,-7.11,-6.01,0,*74
1496772161.33,24360,18.75,73578.0,5.41,-7.05,-5.47,0,*7A
1496772162.55,24361,18.75,73580.5,5.41,-6.55,-4.85,0,*70
1496772163.74,24362,18.75,73586.5,5.41,-6.59,-5.39,0,*79
1496772164.97,24363,18.75,73582.5,5.41,-7.05,-5.69,0,*75
1496772166.19,24364,18.75,73578.8,5.37,-7.11,-5.81,0,*70
1496772167.43,24365,18.75,73584.0,5.41,-6.93,-4.85,0,*7E
1496772168.65,24366,18.75,73586.0,5.37,-6.97,-4.65,0,*76
1496772169.87,24367,18.75,73580.0,5.37,-6.85,-4.89,0,*76
1496772171.09,24368,18.75,73584.8,5.37,-6.85,-5.19,0,*71
1496772172.32,24369,18.75,73580.3,5.37,-6.63,-4.81,0,*78
1496772173.54,24370,18.75,73582.5,5.41,-6.39,-5.03,0,*75
1496772174.73,24371,18.75,73584.0,5.37,-6.05,-4.53,0,*7E
1496772175.92,24372,18.75,73584.5,5.37,-5.51,-4.13,0,*7B
1496772177.12,24373,18.75,73586.0,5.37,-4.53,-3.47,0,*7F
1496772178.37,24374,18.75,73580.8,5.37,-3.51,-2.63,0,*7A
1496772179.6,24375,18.75,73582.5,5.37,-2.51,-1.95,0,*70
1496772180.84,24376,18.75,73578.3,5.37,-1.43,-1.01,0,*7E
1496772182.02,24377,18.75,73580.0,5.37,-0.37,-0.15,0,*79
1496772183.24,24378,18.75,73578.8,5.37,0.47,0.51,0,*71
1496772184.47,24379,18.75,73576.8,5.37,1.25,1.13,0,*72
1496772185.66,24380,18.75,73578.0,5.37,1.83,1.47,0,*79
1496772186.88,24381,18.75,73574.3,5.41,2.21,1.85,0,*7C
1496772188.11,24382,18.75,73576.8,5.41,2.51,2.09,0,*7F
1496772189.32,24383,18.75,73572.3,5.37,2.65,2.17,0,*77
1496772190.53,24384,18.75,73574.3,5.37,2.65,2.17,0,*70
1496772191.73,24385,18.75,73574.5,5.37,2.59,2.27,0,*7D
1496772192.95,24386,18.75,73572.8,5.41,2.73,2.25,0,*75
1496772194.14,24387,18.75,73572.3,5.41,2.69,2.35,0,*7E
1496772195.34,24388,18.75,73572.5,5.41,2.69,2.35,0,*71
1496772196.53,24389,18.75,73572.0,5.41,2.61,2.47,0,*7D
1496772197.75,24390,18.75,73572.8,5.41,2.73,2.59,0,*79
1496772198.96,24391,18.75,73576.3,5.41,2.81,2.61,0,*7E
1496772200.18,24392,18.75,73576.3,5.41,2.85,2.73,0,*7A
1496772201.41,24393,18.75,73578.8,5.41,2.73,2.81,0,*7F
1496772202.61,24394,18.75,73572.8,5.41,2.91,3.03,0,*7F
1496772203.84,24395,18.75,73582.5,5.41,3.15,3.23,0,*71
1496772205.06,24396,18.75,73588.5,5.41,3.19,3.33,0,*7F
1496772206.31,24397,18.75,73582.8,5.43,3.37,3.37,0,*74
1496772207.52,24398,18.75,73574.0,5.41,3.29,3.33,0,*72
1496772208.71,24399,18.75,73572.0,5.41,3.45,3.55,0,*79
1496772209.94,24400,18.75,73570.5,5.43,3.59,3.71,0,*77
1496772211.14,24401,18.75,73566.3,5.41,3.67,3.85,0,*72
1496772212.36,24402,18.75,73564.5,5.41,3.79,4.01,0,*75
1496772213.57,24403,18.75,73562.3,5.41,3.89,4.05,0,*7F
1496772214.74,24404,18.75,73560.3,5.41,3.93,4.11,0,*76
1496772215.94,24405,18.75,73560.3,5.41,4.01,4.23,0,*7A
1496772217.14,24406,18.75,73560.0,5.43,4.15,4.37,0,*7B
1496772218.32,24407,18.75,73560.3,5.41,4.23,4.49,0,*74
1496772219.52,24408,18.75,73568.3,5.41,4.33,4.59,0,*7B
1496772220.74,24409,18.75,73572.5,5.43,4.49,4.71,0,*7F
1496772221.97,24410,18.75,73576.8,5.41,4.59,4.67,0,*73
1496772223.19,24411,18.75,73574.0,5.43,4.37,4.37,0,*7D
1496772224.42,24412,18.75,73572.3,5.41,4.05,4.05,0,*7C
1496772225.62,24413,18.75,73578.3,5.41,4.11,4.05,0,*78
1496772226.79,24414,18.75,73580.0,5.41,4.23,4.15,0,*7F
1496772228.02,24415,18.75,73578.8,5.43,4.27,4.31,0,*7E
1496772229.2,24416,18.75,73578.8,5.41,4.27,4.33,0,*7D
1496772230.45,24417,18.75,73572.8,5.43,4.63,4.59,0,*72
1496772231.68,24418,18.75,73574.5,5.43,4.53,4.63,0,*77
1496772232.87,24419,18.75,73576.3,5.41,4.27,4.37,0,*76
1496772234.07,24420,18.75,73576.3,5.43,4.41,4.41,0,*7F
1496772235.27,24421,18.75,73574.3,5.43,4.41,4.49,0,*76
1496772236.44,24422,18.75,73568.0,5.41,4.45,4.45,0,*7F
1496772237.64,24423,18.75,73570.5,5.41,4.57,4.67,0,*7D
1496772238.9,24424,18.75,73560.0,5.43,4.75,4.79,0,*77
1496772240.15,24425,18.75,73562.0,5.43,4.75,4.75,0,*7A
1496772241.38,24426,18.75,73558.0,5.41,4.59,4.67,0,*76
1496772242.58,24427,18.75,73564.5,5.43,4.49,4.49,0,*78
1496772243.83,24428,18.75,73562.8,5.43,4.63,4.63,0,*77
1496772245.09,24429,18.75,73564.3,5.43,4.59,4.63,0,*7F
1496772246.34,24430,18.75,73560.8,5.43,4.63,4.63,0,*7E
1496772247.61,24431,18.75,73566.0,5.43,4.71,4.71,0,*7F
1496772248.87,24432,18.81,73574.0,5.43,4.71,4.75,0,*78
1496772250.12,24433,18.75,73574.0,5.43,4.79,4.79,0,*7D
1496772251.32,24434,18.75,73574.8,5.45,4.79,4.81,0,*7B
1496772252.54,24435,18.75,73574.3,5.45,4.67,4.79,0,*72
1496772253.77,24436,18.75,73576.3,5.49,4.63,4.75,0,*75
1496772255.0,24437,18.75,73574.3,5.45,4.67,4.75,0,*7C
1496772256.23,24438,18.75,73572.5,5.45,4.75,4.75,0,*70
1496772257.41,24439,18.75,73572.8,5.45,4.53,4.57,0,*75
1496772258.64,24440,18.75,73576.0,5.43,4.27,4.31,0,*7E
1496772259.82,24441,18.75,73576.5,5.45,4.33,4.45,0,*7F
1496772260.99,24442,18.75,73572.8,5.45,4.41,4.53,0,*7E
1496772262.16,24443,18.75,73570.0,5.45,4.41,4.45,0,*78
1496772263.37,24444,18.75,73572.0,5.45,4.31,4.33,0,*79
1496772264.57,24445,18.75,73570.8,5.45,4.19,4.31,0,*70
1496772265.75,24446,18.75,73568.8,5.45,4.07,4.23,0,*7F
1496772266.94,24447,18.75,73570.8,5.45,4.01,4.19,0,*71
1496772268.12,24448,18.75,73570.8,5.45,3.85,4.07,0,*7A
1496772269.32,24449,18.75,73572.0,5.43,3.81,3.93,0,*73
1496772270.55,24450,18.75,73572.5,5.43,3.71,3.93,0,*74
1496772271.75,24451,18.75,73570.8,5.43,3.55,3.81,0,*70
1496772273.0,24452,18.75,73566.0,5.43,3.49,3.79,0,*79
1496772274.24,24453,18.75,73570.5,5.43,3.37,3.67,0,*7E
1496772275.44,24454,18.75,73570.0,5.45,3.37,3.59,0,*72
1496772276.69,24455,18.75,73570.3,5.43,3.33,3.49,0,*70
1496772277.94,24456,18.75,73572.8,5.43,3.45,3.67,0,*7E
1496772279.16,24457,18.75,73568.0,5.43,3.45,3.59,0,*72
1496772280.39,24458,18.75,73570.8,5.43,3.59,3.71,0,*7A
1496772281.64,24459,18.75,73570.0,5.43,3.71,3.79,0,*79
1496772282.85,24460,18.75,73568.0,5.43,3.93,3.93,0,*7B
1496772284.05,24461,18.75,73570.0,5.45,4.07,3.97,0,*72
1496772285.25,24462,18.75,73570.8,5.45,4.07,4.01,0,*79
1496772286.43,24463,18.75,73570.0,5.45,4.11,3.93,0,*73
1496772287.66,24464,18.75,73568.8,5.43,4.15,3.67,0,*7D
1496772288.89,24465,18.75,73574.8,5.41,4.05,3.41,0,*7B
1496772290.12,24466,18.75,73568.5,5.43,4.07,3.33,0,*7D
1496772291.33,24467,18.75,73568.8,5.43,4.07,3.25,0,*7B
1496772292.51,24468,18.75,73568.5,5.45,4.11,3.29,0,*79
1496772293.71,24469,18.75,73572.8,5.45,4.11,3.15,0,*77
1496772294.91,24470,18.75,73572.5,5.45,4.11,3.11,0,*7B
1496772296.1,24471,18.75,73576.3,5.49,4.01,2.91,0,*7E
1496772297.31,24472,18.75,73574.8,5.45,4.07,2.89,0,*7E
1496772298.51,24473,18.75,73576.3,5.49,4.07,2.89,0,*73
1496772299.71,24474,18.75,73568.3,5.45,4.11,3.03,0,*7C
1496772300.91,24475,18.75,73568.8,5.45,4.23,3.23,0,*7E
1496772302.11,24476,18.75,73564.5,5.45,4.23,3.15,0,*78
1496772303.32,24477,18.75,73570.0,5.45,4.31,3.25,0,*79
1496772304.51,24478,18.75,73574.3,5.45,4.23,3.53,0,*74
1496772305.71,24479,18.75,73572.0,5.45,4.41,3.75,0,*75
1496772306.88,24480,18.75,73568.3,5.45,4.41,4.07,0,*71
1496772308.06,24481,18.75,73568.0,5.45,4.53,4.23,0,*75
1496772309.27,24482,18.75,73570.5,5.43,4.53,4.37,0,*75
1496772310.47,24483,18.75,73568.8,5.45,4.63,4.57,0,*77
1496772311.69,24484,18.75,73570.5,5.49,4.67,4.67,0,*7B
1496772312.89,24485,18.75,73570.0,5.45,4.67,4.57,0,*75
1496772314.12,24486,18.75,73574.5,5.45,4.75,4.67,0,*76
1496772315.35,24487,18.75,73572.3,5.45,4.75,4.67,0,*77
1496772316.57,24488,18.75,73576.5,5.49,4.75,4.75,0,*77
1496772317.8,24489,18.75,73574.3,5.45,4.75,4.75,0,*7A
1496772319.04,24490,18.75,73572.0,5.45,4.75,4.75,0,*72
1496772320.24,24491,18.75,73578.3,5.45,4.89,4.93,0,*78
1496772321.47,24492,18.75,73578.0,5.45,5.01,5.01,0,*70
1496772322.68,24493,18.75,73578.3,5.49,4.89,5.01,0,*7C
1496772323.88,24494,18.75,73574.3,5.49,4.89,4.93,0,*71
1496772325.08,24495,18.75,73572.0,5.49,4.79,4.89,0,*74
1496772326.25,24496,18.75,73572.5,5.45,4.81,4.89,0,*7C
1496772327.44,24497,18.75,73572.3,5.49,4.81,4.79,0,*7E
1496772328.61,24498,18.75,73568.8,5.49,4.81,4.89,0,*7E
1496772329.78,24499,18.75,73566.8,5.49,4.81,4.89,0,*7F
1496772331.0,24500,18.75,73564.0,5.49,4.79,4.79,0,*76
1496772332.17,24501,18.75,73564.5,5.49,4.81,4.81,0,*77
1496772333.36,24502,18.75,73566.5,5.45,4.79,4.81,0,*7F
1496772334.55,24503,18.75,73570.3,5.49,4.79,4.81,0,*72
1496772335.75,24504,18.75,73574.3,5.45,4.79,4.81,0,*79
1496772336.92,24505,18.75,73574.3,5.45,4.89,4.89,0,*7F
1496772338.09,24506,18.75,73570.3,5.49,4.89,4.89,0,*70
1496772339.35,24507,18.75,73566.3,5.51,4.93,4.93,0,*78
1496772340.61,24508,18.75,73568.0,5.51,4.93,4.93,0,*77
1496772341.87,24509,18.75,73570.3,5.51,4.93,4.93,0,*76
1496772343.12,24510,18.75,73570.0,5.51,4.93,4.93,0,*7E
1496772344.32,24511,18.75,73572.3,5.51,4.85,4.81,0,*7B
1496772345.54,24512,18.75,73568.8,5.51,4.79,4.81,0,*7B
1496772346.74,24513,18.75,73566.8,5.49,4.57,4.79,0,*78
1496772347.94,24514,18.75,73566.5,5.49,4.45,4.67,0,*73
1496772349.11,24515,18.75,73556.8,5.49,4.41,4.57,0,*75
1496772350.32,24516,18.75,73556.0,5.49,4.31,4.33,0,*73
1496772351.51,24517,18.75,73564.3,5.51,4.23,4.27,0,*7D
1496772352.71,24518,18.75,73568.8,5.51,4.15,4.11,0,*72
1496772353.96,24519,18.75,73572.3,5.51,3.97,4.05,0,*7B
1496772355.18,24520,18.75,73572.5,5.51,3.85,3.97,0,*7E
1496772356.43,24521,18.75,73576.5,5.51,3.97,4.05,0,*70
1496772357.64,24522,18.75,73572.0,5.51,4.11,4.33,0,*7F
1496772358.84,24523,18.75,73578.5,5.51,4.33,4.45,0,*7F
1496772360.05,24524,18.75,73572.8,5.51,4.37,4.57,0,*7F
1496772361.26,24525,18.75,73570.8,5.51,4.37,4.57,0,*7E
1496772362.45,24526,18.75,73568.5,5.53,4.41,4.59,0,*70
1496772363.63,24527,18.75,73574.3,5.53,4.19,4.53,0,*76
1496772364.8,24528,18.75,73578.0,5.53,4.19,4.41,0,*7A
1496772365.97,24529,18.75,73578.3,5.53,4.07,4.27,0,*74
1496772367.14,24530,18.75,73572.0,5.53,3.93,4.19,0,*7B
1496772368.31,24531,18.75,73570.8,5.53,3.93,4.19,0,*7A
1496772369.47,24532,18.75,73564.8,5.53,3.81,4.19,0,*7A
1496772370.68,24533,18.75,73554.3,5.53,3.07,3.93,0,*70
1496772371.88,24534,18.75,73576.3,5.53,2.17,3.55,0,*7D
1496772373.05,24535,18.75,73572.3,5.53,1.75,3.29,0,*70
1496772374.26,24536,18.75,73566.5,5.53,0.17,2.47,0,*4F
1496772375.48,24537,18.75,73566.5,5.53,-2.03,1.51,0,*50
1496772376.68,24538,18.75,73550.3,5.53,-3.19,0.83,0,*6B
1496772377.88,24539,18.75,73556.0,5.53,-3.15,0.55,0,*6D
1496772379.11,24540,18.75,73550.5,5.51,-4.89,-0.61,0,*49
1496772380.36,24541,18.75,73556.3,5.51,-3.55,0.13,0,*66
1496772381.59,24542,18.75,73562.8,5.51,-4.09,-0.23,0,*45
1496772382.75,24543,18.75,73564.0,5.49,-3.23,0.01,0,*5F
1496772383.95,24544,18.75,73572.0,5.49,-2.35,0.25,0,*68
1496772385.14,24545,18.75,73574.5,5.49,-2.19,0.29,0,*6B
1496772386.36,24546,18.75,73580.5,5.49,-0.97,0.47,0,*54
1496772387.58,24547,18.75,73580.3,5.45,-0.23,0.83,0,*5E
1496772388.82,24548,18.75,73572.8,5.51,0.41,0.51,0,*72
1496772390.04,24549,18.75,73576.0,5.51,1.05,0.63,0,*43
1496772391.26,24550,18.75,73572.0,5.49,1.93,1.13,0,*7B
1496772392.46,24551,18.75,73570.0,5.49,2.81,1.83,0,*73
1496772393.63,24552,18.75,73574.3,5.49,3.25,2.31,0,*75
1496772394.88,24553,18.75,73572.3,5.51,3.67,2.85,0,*74
1496772396.1,24554,18.75,73572.0,5.49,3.97,3.53,0,*7F
1496772397.29,24555,18.75,73580.0,5.45,4.19,3.97,0,*7B
1496772398.49,24556,18.75,73576.0,5.49,4.41,4.31,0,*72
1496772399.66,24557,18.75,73570.0,5.49,4.53,4.45,0,*73
1496772400.84,24558,18.75,73570.0,5.49,4.53,4.45,0,*7C
1496772402.06,24559,18.75,73576.8,5.49,4.63,4.63,0,*7A
1496772403.31,24560,18.75,73590.8,5.51,4.79,4.79,0,*79
1496772404.57,24561,18.75,73594.3,5.51,4.71,4.79,0,*70
1496772405.79,24562,18.75,73576.0,5.51,4.49,4.59,0,*7A
1496772406.99,24563,18.75,73574.5,5.51,4.27,4.49,0,*72
1496772408.22,24564,18.75,73570.0,5.51,4.37,4.67,0,*78
1496772409.45,24565,18.75,73562.3,5.51,4.49,4.71,0,*77
1496772410.65,24566,18.75,73566.0,5.53,4.71,4.81,0,*72
1496772411.87,24567,18.75,73582.0,5.51,4.79,4.81,0,*79
1496772413.13,24568,18.75,73588.8,5.51,4.71,4.79,0,*79
1496772414.37,24569,18.75,73594.8,5.53,4.71,4.75,0,*76
1496772415.6,24570,18.75,73596.0,5.53,4.59,4.71,0,*70
1496772416.79,24571,18.75,73596.5,5.53,4.05,4.19,0,*76
1496772418.01,24572,18.75,73598.5,5.53,3.49,3.71,0,*73
1496772419.26,24573,18.75,73596.5,5.51,3.19,3.37,0,*77
1496772420.47,24574,18.75,73594.3,5.53,3.37,3.37,0,*7E
1496772421.7,24575,18.75,73596.8,5.51,3.63,3.33,0,*78
1496772422.9,24576,18.75,73596.3,5.53,3.93,3.49,0,*7B
1496772424.09,24577,18.75,73598.0,5.53,4.01,3.59,0,*77
1496772425.32,24578,18.75,73598.5,5.53,4.05,3.49,0,*7D
1496772426.49,24579,18.75,73594.8,5.53,3.89,3.29,0,*79
1496772427.69,24580,18.75,73594.3,5.53,3.89,3.11,0,*74
1496772428.92,24581,18.75,73584.0,5.51,3.97,3.29,0,*73
1496772430.12,24582,18.75,73586.5,5.53,4.15,3.71,0,*72
1496772431.34,24583,18.75,73572.0,5.51,4.23,4.01,0,*74
1496772432.51,24584,18.75,73558.3,5.53,4.37,4.27,0,*70
1496772433.71,24585,18.75,73552.8,5.51,4.45,4.45,0,*72
1496772434.9,24586,18.75,73550.3,5.51,4.49,4.49,0,*71
1496772436.13,24587,18.75,73564.5,5.51,4.59,4.49,0,*71
1496772437.32,24588,18.75,73568.0,5.53,4.63,4.53,0,*7E
1496772438.53,24589,18.75,73568.0,5.57,4.45,4.41,0,*7C
1496772439.72,24590,18.75,73574.3,5.53,4.31,4.19,0,*7E
1496772440.95,24591,18.75,73578.0,5.51,4.15,4.05,0,*76
1496772442.14,24592,18.75,73570.5,5.53,4.19,4.01,0,*7F
1496772443.37,24593,18.75,73568.5,5.51,4.11,3.75,0,*70
1496772444.61,24594,18.75,73568.5,5.51,3.89,3.41,0,*76
1496772445.84,24595,18.75,73570.5,5.51,3.75,3.25,0,*76
1496772447.06,24596,18.75,73570.8,5.53,4.01,3.37,0,*70
1496772448.25,24597,18.75,73566.0,5.53,3.93,3.37,0,*7D
1496772449.46,24598,18.75,73564.8,5.51,3.89,3.25,0,*78
1496772450.66,24599,18.75,73562.5,5.51,4.11,3.55,0,*78
1496772451.86,24600,18.75,73556.0,5.53,4.15,3.79,0,*73
1496772453.05,24601,18.75,73560.0,5.51,4.27,4.11,0,*78
1496772454.26,24602,18.75,73562.5,5.51,4.45,4.37,0,*7B
1496772455.48,24603,18.81,73568.0,5.53,4.59,4.59,0,*7D
1496772456.7,24604,18.75,73570.3,5.53,4.67,4.59,0,*77
1496772457.92,24605,18.75,73566.0,5.53,4.63,4.59,0,*72
1496772459.12,24606,18.75,73566.0,5.53,4.71,4.49,0,*73
1496772460.34,24607,18.81,73566.5,5.53,4.75,4.63,0,*7E
1496772461.54,24608,18.75,73560.3,5.53,4.81,4.63,0,*7A
1496772462.74,24609,18.75,73564.5,5.53,4.81,4.75,0,*7C
1496772463.9,24610,18.81,73572.3,5.53,4.85,4.81,0,*7B
1496772465.07,24611,18.75,73574.0,5.53,4.89,4.81,0,*76
1496772466.3,24612,18.81,73574.5,5.51,4.81,4.79,0,*78
1496772467.55,24613,18.75,73568.8,5.57,4.93,4.93,0,*78
1496772468.81,24614,18.81,73570.3,5.57,4.93,4.93,0,*7F
1496772470.07,24615,18.75,73574.0,5.57,4.93,5.01,0,*74
1496772471.3,24616,18.75,73570.5,5.59,5.01,5.05,0,*77
1496772472.54,24617,18.75,73568.3,5.59,5.01,4.93,0,*78
1496772473.74,24618,18.75,73580.5,5.59,4.89,4.93,0,*76
1496772474.94,24619,18.75,73578.0,5.57,4.89,4.89,0,*72
1496772476.18,24620,18.75,73574.3,5.59,5.05,5.01,0,*72
1496772477.44,24621,18.75,73568.3,5.57,5.05,5.01,0,*7D
1496772478.64,24622,18.75,73566.3,5.59,5.01,4.89,0,*75
1496772479.84,24623,18.75,73556.5,5.59,4.75,4.57,0,*75
1496772481.1,24624,18.75,73550.5,5.57,5.01,5.01,0,*7C
1496772482.28,24625,18.81,73556.0,5.59,5.23,5.15,0,*76
1496772483.48,24626,18.75,73556.3,5.59,5.27,5.23,0,*74
1496772484.68,24627,18.75,73562.5,5.59,5.27,5.33,0,*74
1496772485.87,24628,18.75,73558.3,5.57,5.37,5.37,0,*70
1496772487.05,24629,18.75,73562.8,5.59,5.33,5.33,0,*7F
1496772488.23,24630,18.75,73570.3,5.59,5.15,5.23,0,*72
1496772489.41,24631,18.75,73580.8,5.59,5.11,5.11,0,*76
1496772490.62,24632,18.75,73574.8,5.59,4.89,4.93,0,*7E
1496772491.85,24633,18.81,73584.5,5.61,5.05,5.15,0,*7E
1496772493.05,24634,18.75,73580.0,5.59,5.11,5.05,0,*76
1496772494.25,24635,18.75,73580.8,5.61,5.15,5.07,0,*7A
1496772495.43,24636,18.75,73578.8,5.59,5.11,5.15,0,*75
1496772496.63,24637,18.75,73576.8,5.61,5.19,5.19,0,*7B
1496772497.86,24638,18.75,73570.5,5.61,5.05,5.15,0,*75
1496772499.03,24639,18.81,73566.8,5.63,5.15,5.15,0,*77
1496772500.24,24640,18.75,73560.5,5.61,5.27,5.29,0,*75
1496772501.43,24641,18.81,73574.8,5.61,5.29,5.29,0,*7A
1496772502.62,24642,18.75,73580.3,5.61,5.37,5.37,0,*79
1496772503.82,24643,18.75,73580.5,5.61,5.41,5.49,0,*70
1496772505.01,24644,18.75,73574.0,5.61,5.41,5.49,0,*77
1496772506.18,24645,18.81,73574.0,5.63,5.37,5.41,0,*7D
1496772507.36,24646,18.75,73566.0,5.63,5.27,5.29,0,*71
1496772508.55,24647,18.75,73564.0,5.63,5.27,5.29,0,*70
1496772509.74,24648,18.75,73566.5,5.63,5.19,5.19,0,*71
1496772510.95,24649,18.75,73564.0,5.63,5.27,5.27,0,*70
1496772512.14,24650,18.75,73552.3,5.63,5.27,5.29,0,*76
1496772513.3,24651,18.75,73554.5,5.63,5.29,5.37,0,*76
1496772514.47,24652,18.75,73556.5,5.63,5.37,5.37,0,*7A
1496772515.64,24653,18.75,73558.5,5.67,5.49,5.45,0,*73
1496772516.8,24654,18.75,73558.5,5.67,5.45,5.45,0,*78
1496772517.96,24655,18.75,73560.0,5.67,5.45,5.41,0,*7D
1496772519.15,24656,18.75,73562.8,5.69,5.45,5.49,0,*78
1496772520.37,24657,18.75,73552.0,5.67,5.51,5.51,0,*7B
1496772521.59,24658,18.81,73554.5,5.67,5.51,5.51,0,*74
1496772522.78,24659,18.75,73556.0,5.67,5.55,5.59,0,*79